Flag for Austria Past Weather in Feldkirchen in Kärnten, Carinthia, Austria — Yesterday and Last 2 Weeks

Now
10 °F

Low clouds.


Feels Like: 10 °F
Forecast: 13 / 31 °F
Wind: No wind

Location: Klagenfurt-Flughafen

Current Time: Jan 23, 2017 at 9:39:00 am

Latest Report: Jan 23, 2017 at 9:00 am


Visibility: 0 mi

Pressure: 30.49 "Hg (28.40 "Hg at 541m altitude)

Humidity: 90%

Dew Point: 8 °F

Location of Feldkirchen in KärntenLocation

Past Weather in Feldkirchen in Kärnten — Graph

°F

Feldkirchen in Kärnten Temperature Yesterday

Maximum temperature yesterday: 26 °F (at 4:00 pm)
Minimum temperature yesterday: 5 °F (at 8:00 am)
Average temperature yesterday: 14 °F

High & Low Weather Summary for the Past Weeks

 TemperatureHumidityPressure
High40 °F (Jan 9, 3:00 pm)100% (Jan 16, 12:00 am)30.78 "Hg (Jan 16, 12:00 am)
Low5 °F (Jan 22, 8:00 am)35% (Jan 9, 4:00 pm)29.55 "Hg (Jan 13, 1:00 pm)
Average19 °F80%30.30 "Hg
* Reported Jan 8 8:00 am — Jan 23 8:00 am, Feldkirchen in Kärnten, Weather by CustomWeather, © 2017

Note: Actual official high and low records may vary slightly from our data, if they occured in-between our weather recording intervals... More about our weather records

Advertising

Feldkirchen in Kärnten Weather History for the Previous 24 Hours

Scroll right to see more
 ConditionsComfort  
Time TempWeatherWind HumidityBarometerVisibility
8:00 am
Mon, Jan 23
9 °FIcy mix. Low clouds.N/A89%30.50 "Hg0 mi
7:00 am9 °FIcy mix. Low clouds.N/A90%30.51 "Hg1 mi
6:00 am9 °FLow clouds.N/A86%30.51 "Hg5 mi
5:00 am7 °FLow clouds.N/A87%30.54 "Hg4 mi
4:00 am6 °FLight snow. Passing clouds.N/A86%30.55 "Hg0 mi
3:00 am8 °FIcy mix. Passing clouds.N/A87%30.55 "Hg0 mi
2:00 am10 °FPassing clouds.N/A88%30.55 "Hg6 mi
1:00 am10 °FFrigid.N/A88%30.55 "Hg5 mi
12:00 am12 °FCold.N/A88%30.55 "Hg6 mi
11:00 pm
Sun, Jan 22
14 °FClear.N/A89%30.55 "Hg5 mi
10:00 pm15 °FClear.N/A88%30.55 "Hg5 mi
9:00 pm15 °FClear.N/A89%30.55 "Hg5 mi
8:00 pm17 °FClear.N/A87%30.54 "Hg4 mi
7:00 pm18 °FClear.N/A84%30.53 "Hg7 mi
6:00 pm20 °FClear.N/A80%30.51 "Hg6 mi
5:00 pm24 °FClear.N/A74%30.50 "Hg9 mi
4:00 pm26 °FSunny.N/A70%30.50 "Hg9 mi
3:00 pm25 °FSunny.N/A71%30.51 "Hg7 mi
2:00 pm23 °FSunny.N/A77%30.54 "Hg6 mi
1:00 pm21 °FSunny.N/A77%30.58 "Hg5 mi
12:00 pm17 °FSunny.N/A82%30.63 "Hg3 mi
11:00 am15 °FScattered clouds.N/A82%30.66 "Hg1 mi
10:00 am11 °FIcy mix. Scattered clouds.N/A89%30.68 "Hg2 mi
9:00 am7 °FLow clouds.N/A87%30.69 "Hg0 mi
Weather by CustomWeather, © 2017

See weather overviewHow to use our weather pages